This is the latest recevied weather packets stored in our database for station/object KD8OZS. If no packets are shown the sender has not sent any weather packets the latest 10 day(s).
| Time | Temp. | Humidity | Pressure | Rain* | Wind** | Luminosity | Snow |
|---|---|---|---|---|---|---|---|
| 1777724220 | 3.89° C | 87% | 1009.1 hPa | 0 mm | - | 117 W/m² | - |
| 1777723917 | 3.89° C | 89% | 1008.9 hPa | 0 mm | - | 139 W/m² | - |
| 1777723613 | 2.78° C | 93% | 1008.6 hPa | 0 mm | - | 107 W/m² | - |
| 1777723310 | 2.22° C | 94% | 1008.7 hPa | 0 mm | - | 101 W/m² | - |
| 1777723008 | 2.78° C | 95% | 1008.8 hPa | 0 mm | - | 95 W/m² | - |
| 1777722704 | 1.67° C | 96% | 1008.8 hPa | 0 mm | - | 85 W/m² | - |
| 1777722400 | 1.67° C | 97% | 1008.7 hPa | 0 mm | - | 72 W/m² | - |
| 1777722098 | 1.11° C | 98% | 1008.7 hPa | 0 mm | - | 58 W/m² | - |
| 1777721795 | 1.11° C | 98% | 1008.8 hPa | 0 mm | - | 40 W/m² | - |
| 1777721493 | 1.11° C | 98% | 1008.8 hPa | 0 mm | - | 39 W/m² | - |
| 1777721191 | 1.11° C | 98% | 1008.6 hPa | 0 mm | - | 43 W/m² | - |
| 1777720888 | 1.11° C | 98% | 1008.6 hPa | 0 mm | - | 37 W/m² | - |
| 1777720585 | 0.56° C | 98% | 1008.5 hPa | 0 mm | - | 28 W/m² | - |
| 1777720283 | 0.56° C | 98% | 1008.6 hPa | 0 mm | - | 23 W/m² | - |
| 1777719980 | 0.56° C | 98% | 1008.7 hPa | 0 mm | - | 21 W/m² | - |
| 1777719677 | 0° C | 98% | 1008.6 hPa | 0 mm | - | 19 W/m² | - |
| 1777719375 | 0° C | 98% | 1008.4 hPa | 0 mm | - | 16 W/m² | - |
| 1777719072 | 0° C | 98% | 1008.6 hPa | 0 mm | - | 13 W/m² | - |
| 1777718769 | 0° C | 98% | 1008.5 hPa | 0 mm | - | 10 W/m² | - |
| 1777718466 | 0° C | 98% | 1008.5 hPa | 0 mm | - | 8 W/m² | - |
| 1777718164 | 0° C | 98% | 1008.5 hPa | 0 mm | - | 6 W/m² | - |
| 1777717862 | 0.56° C | 98% | 1008.5 hPa | 0 mm | - | 3 W/m² | - |
| 1777717558 | 0° C | 98% | 1008.5 hPa | 0 mm | - | 1 W/m² | - |
| 1777717255 | 0° C | 98% | 1008.4 hPa | 0 mm | - | 0 W/m² | - |
| 1777716953 | 0° C | 98% | 1008.3 hPa | 0 mm | - | 0 W/m² | - |
* Rain latest hour (hover to see other rain measurements)
** Current wind speed in m/s (hover to see current wind gust speed)